Location: Allison Elementary School
(34.0784°N, 117.7317°W)
Time: 03:37:04
(UTC+00:00)

SL-8 R/B - Pass Details

Date: 15 November 2019
Orbit: 657 x 667 km, 48.4° (Epoch: 14 December)

Event Time Altitude Azimuth Distance (km) Brightness Sun altitude
Rises 02:22:07 0° 209° (SSW) 2,984 7.6 -19.6°
Reaches altitude 10° 02:24:35 10° 200° (SSW) 2,076 6.6 -20.1°
Maximum altitude 02:28:59 36° 134° (SE) 1,040 4.4 -21.0°
Enters shadow 02:29:00 36° 134° (SE) 1,040 4.4 -21.0°
